Hurricane Symbol View the latest observations near East Pacific Tropical Storm Bud.

Station AMAA2 - East Amatuli Island Light, AK Image indicating link to RSS feed of recent meteorological observations for station AMAA2


Conditions at AMAA2 as of
(3:30 pm AKDT)
2330 GMT on 07/24/2024:
     

Click on the graph icon in the table below to see a time series plot of the last five days of that observation.

5-day plot - Wind Direction Wind Direction (WDIR): SW ( 220 deg true )
5-day plot - Wind Speed Wind Speed (WSPD): 8 kts
5-day plot - Wind Gust Wind Gust (GST): 10 kts
5-day plot - Atmospheric Pressure Atmospheric Pressure (PRES):30.10 in
5-day plot - Air Temperature Air Temperature (ATMP): 51.6 °F
5-day plot - Dew Point Dew Point (DEWP): 51.6 °F
5-day plot - Wind Chill Wind Chill (CHILL): 48.4 °F
5-day plot - Wind Speed at 10 Meters Wind Speed at 10 meters (WSPD10M): 8 kts
5-day plot - Wind Speed at 20 Meters Wind Speed at 20 meters (WSPD20M): 8 kts
5-day plot -  Wind Speed, Wind Gust and Atmospheric Pressure Combined plot of Wind Speed, Gust, and Air Pressure
Continuous Winds
TIME
(AKDT)
5-day plot - Wind Direction WDIR 5-day plot - Wind Speed WSPD
3:30 pmSW ( 226 deg ) 9 kts
3:20 pmSW ( 228 deg ) 9 kts
3:10 pmSW ( 217 deg ) 9 kts
3:00 pmSSW ( 213 deg ) 8 kts
2:50 pmWSW ( 237 deg ) 9 kts
2:40 pmSW ( 232 deg ) 10 kts
 
Peak gust during the measurement hour
TIME
(AKDT)
5-day plot - Gust Direction GDR 5-day plot - Gust Speed GST
2:35 pmSW ( 230 deg ) 11 kts
Previous observations
TIME
(AKDT)
5-day plot - Wind Direction
WDIR
 
5-day plot - Wind Speed
WSPD
kts
5-day plot - Wind Gust
GST
kts
5-day plot - Wave Height
WVHT
ft
5-day plot - Dominant Wave Period
DPD
sec
5-day plot - Average Wave Period
APD
sec
5-day plot - Mean Wave Direction
MWD
 
5-day plot - Atmospheric Pressure
PRES
in
5-day plot - Pressure Tendency
PTDY
in
5-day plot - Air Temperature
ATMP
°F
5-day plot - Water Temperature
WTMP
°F
5-day plot - Dew Point
DEWP
°F
5-day plot - Salinity
SAL
psu
5-day plot - Visibility
VIS
nmi
5-day plot - Tide (above MLLW)
TIDE
ft
2024-07-24 03:00 pmSSW 9 10----30.10+0.02 51.6- 51.6---
2024-07-24 02:30 pm SW 10 11----30.10- 52.0- 52.0---
2024-07-24 02:00 pmWSW 12 13----30.09+0.02 52.5- 52.5---
2024-07-24 01:30 pmWSW 13 14----30.09- 52.2- 52.2---
2024-07-24 01:00 pmWSW 15 18----30.09+0.02 52.0- 52.0---
2024-07-24 12:30 pmWSW 18 20----30.08- 52.3- 52.3---
2024-07-24 12:00 pmWSW 20 22----30.08+0.02 52.3- 52.3---
2024-07-24 11:30 amWSW 22 23----30.07- 51.8- 51.8---
2024-07-24 11:00 amWSW 18 20----30.08+0.02 51.8- 51.8---
2024-07-24 10:30 amWSW 22 24----30.07- 51.8- 51.8---
2024-07-24 10:00 amWSW 23 26----30.06+0.01 51.8- 51.8---
2024-07-24 09:30 amWSW 23 26----30.06- 51.6- 51.6---
2024-07-24 09:00 amWSW 21 24----30.06+0.01 51.8- 51.8---
2024-07-24 08:30 amWSW 19 23----30.06- 51.8- 51.8---
2024-07-24 08:00 amWSW 17 19----30.05+0.01 52.0- 52.0---
2024-07-24 07:30 amWSW 22 25----30.05- 52.0- 52.0---
2024-07-24 07:00 amWSW 21 25----30.05+0.02 52.0- 52.0---
2024-07-24 06:30 amWSW 22 24----30.04- 52.0- 52.0---
2024-07-24 06:00 amWSW 24 26----30.04+0.00 51.8- 51.8---
2024-07-24 05:30 amWSW 24 28----30.04- 51.8- 51.8---
2024-07-24 05:00 amWSW 23 27----30.04+0.00 52.2- 52.2---
2024-07-24 04:30 amWSW 25 32----30.03- 52.7- 52.7---
2024-07-24 04:00 amWSW 21 28----30.03+0.00 53.4- 53.4---
2024-07-24 03:30 amWSW 23 27----30.04- 53.6- 53.6---
2024-07-24 03:00 amWSW 21 27----30.04+0.01 53.6- 53.6---
2024-07-24 02:30 amWSW 22 27----30.03- 53.6- 53.6---
2024-07-24 02:00 amWSW 18 23----30.04+0.01 54.3- 54.3---
2024-07-24 01:30 amWSW 19 23----30.04- 54.9- 54.9---
2024-07-24 01:00 amWSW 22 32----30.04+0.01 55.8- 55.8---
2024-07-24 12:30 amWSW 20 26----30.03- 55.2- 55.2---
2024-07-24 12:00 amWSW 20 23----30.03-0.01 54.5- 54.5---
2024-07-23 11:30 pmWSW 18 22----30.03- 54.3- 54.3---
2024-07-23 11:00 pmWSW 15 18----30.03-0.01 54.0- 54.0---
2024-07-23 10:30 pmWSW 14 16----30.02- 54.5- 54.5---
2024-07-23 10:00 pmWSW 18 19----30.03-0.02 54.9- 54.9---
2024-07-23 09:30 pmWSW 17 20----30.03- 55.0- 55.0---
2024-07-23 09:00 pmWSW 22 26----30.03-0.03 55.8- 55.4---
2024-07-23 08:30 pmWSW 21 26----30.04- 56.1- 55.0---
2024-07-23 08:00 pmWSW 24 27----30.04-0.04 55.8- 55.8---
2024-07-23 07:30 pmWSW 19 22----30.04- 55.9- 55.9---
2024-07-23 07:00 pm SW 17 20----30.05-0.04 55.4- 55.4---
2024-07-23 06:30 pmWSW 22 26----30.06- 55.6- 55.6---
2024-07-23 06:00 pmWSW 16 19----30.07-0.03 55.4- 55.4---
2024-07-23 05:30 pmWSW 14 15----30.08- 54.1- 54.1---
2024-07-23 05:00 pmWSW 13 17----30.08-0.02 52.0- 52.0---
2024-07-23 04:30 pmWSW 12 14----30.09- 51.8- 51.8---
2024-07-23 04:00 pmWSW 13 15----30.09-0.02 52.9- 52.9---